Time,TemperatureF,DewpointF,PressureIn,WindDirection,WindDirectionDegrees,WindSpeedMPH,WindSpeedGustMPH,Humidity,HourlyPrecipIn,Conditions,Clouds,dailyrainin,SoftwareType,DateUTC
2013-10-04 00:03:00,71.2,66.8,29.82,SSW,195,7.0,8.0,86,0.00,,,0.00,Wunderground v.1.15,2013-10-04 05:03:00,
2013-10-04 00:08:00,71.2,66.8,29.83,SSW,202,7.0,8.0,86,0.00,,,0.00,Wunderground v.1.15,2013-10-04 05:08:00,
2013-10-04 00:15:00,71.1,66.7,29.83,SSW,205,7.0,9.0,86,0.00,,,0.00,Wunderground v.1.15,2013-10-04 05:15:00,
2013-10-04 00:21:00,71.2,67.1,29.82,SE,144,7.0,10.0,87,0.00,,,0.00,Wunderground v.1.15,2013-10-04 05:21:00,
2013-10-04 00:27:00,71.2,66.8,29.82,South,183,8.0,12.0,86,0.00,,,0.00,Wunderground v.1.15,2013-10-04 05:27:00,
2013-10-04 00:32:00,71.2,67.1,29.82,South,191,7.0,8.0,87,0.00,,,0.00,Wunderground v.1.15,2013-10-04 05:32:00,
2013-10-04 00:33:00,71.2,67.1,29.82,South,178,7.0,8.0,87,0.00,,,0.00,Wunderground v.1.15,2013-10-04 05:33:00,
2013-10-04 00:35:00,71.1,67.0,29.82,South,173,7.0,8.0,87,0.00,,,0.00,Wunderground v.1.15,2013-10-04 05:35:00,
2013-10-04 00:38:00,71.2,67.1,29.82,SSE,157,7.0,12.0,87,0.00,,,0.00,Wunderground v.1.15,2013-10-04 05:38:00,
2013-10-04 00:43:00,71.2,67.1,29.82,SSW,208,7.0,13.0,87,0.00,,,0.00,Wunderground v.1.15,2013-10-04 05:43:00,
2013-10-04 00:48:00,71.1,67.0,29.82,South,186,8.0,13.0,87,0.00,,,0.00,Wunderground v.1.15,2013-10-04 05:48:00,
2013-10-04 00:53:00,71.1,67.0,29.82,SW,217,7.0,9.0,87,0.00,,,0.00,Wunderground v.1.15,2013-10-04 05:53:00,
2013-10-04 00:59:00,71.1,67.0,29.83,ESE,116,7.0,11.0,87,0.00,,,0.00,Wunderground v.1.15,2013-10-04 05:59:00,
2013-10-04 01:04:00,71.1,67.4,29.82,South,174,8.0,9.0,88,0.00,,,0.00,Wunderground v.1.15,2013-10-04 06:04:00,
2013-10-04 01:09:00,70.9,67.2,29.83,ESE,115,7.0,9.0,88,0.00,,,0.00,Wunderground v.1.15,2013-10-04 06:09:00,
2013-10-04 01:14:00,70.9,67.2,29.83,SSW,197,6.0,10.0,88,0.00,,,0.00,Wunderground v.1.15,2013-10-04 06:14:00,
2013-10-04 01:20:00,70.8,67.1,29.83,SSE,166,6.0,6.0,88,0.00,,,0.00,Wunderground v.1.15,2013-10-04 06:20:00,
2013-10-04 01:25:00,70.8,67.1,29.83,SSE,150,6.0,9.0,88,0.00,,,0.00,Wunderground v.1.15,2013-10-04 06:25:00,
2013-10-04 01:30:00,70.7,67.0,29.83,SSW,200,5.0,7.0,88,0.00,,,0.00,Wunderground v.1.15,2013-10-04 06:30:00,
2013-10-04 01:35:00,70.6,67.2,29.83,SSW,199,6.0,9.0,89,0.00,,,0.00,Wunderground v.1.15,2013-10-04 06:35:00,
2013-10-04 01:41:00,70.5,67.1,29.83,SSE,159,5.0,6.0,89,0.00,,,0.00,Wunderground v.1.15,2013-10-04 06:41:00,
2013-10-04 01:46:00,70.4,67.0,29.83,SSE,162,6.0,11.0,89,0.00,,,0.00,Wunderground v.1.15,2013-10-04 06:46:00,
2013-10-04 01:51:00,70.3,66.9,29.83,South,189,4.0,5.0,89,0.00,,,0.00,Wunderground v.1.15,2013-10-04 06:51:00,
2013-10-04 01:57:00,70.2,67.1,29.84,SSW,198,4.0,9.0,90,0.00,,,0.00,Wunderground v.1.15,2013-10-04 06:57:00,
2013-10-04 02:03:00,70.1,67.0,29.84,SSW,192,5.0,7.0,90,0.00,,,0.00,Wunderground v.1.15,2013-10-04 07:03:00,
2013-10-04 02:08:00,70.1,67.0,29.84,South,188,4.0,7.0,90,0.00,,,0.00,Wunderground v.1.15,2013-10-04 07:08:00,
2013-10-04 02:13:00,70.2,67.1,29.84,SSW,192,5.0,7.0,90,0.00,,,0.00,Wunderground v.1.15,2013-10-04 07:13:00,
2013-10-04 02:19:00,70.2,67.1,29.84,SSW,205,5.0,7.0,90,0.00,,,0.00,Wunderground v.1.15,2013-10-04 07:19:00,
2013-10-04 02:24:00,70.3,67.2,29.84,SSW,208,5.0,8.0,90,0.00,,,0.00,Wunderground v.1.15,2013-10-04 07:24:00,
2013-10-04 02:29:00,70.3,67.2,29.84,South,184,5.0,8.0,90,0.00,,,0.00,Wunderground v.1.15,2013-10-04 07:29:00,
2013-10-04 02:34:00,70.3,67.2,29.84,South,169,5.0,8.0,90,0.00,,,0.00,Wunderground v.1.15,2013-10-04 07:34:00,
2013-10-04 02:40:00,70.1,67.0,29.84,SSE,165,4.0,4.0,90,0.00,,,0.00,Wunderground v.1.15,2013-10-04 07:40:00,
2013-10-04 02:45:00,70.0,66.9,29.84,South,183,4.0,7.0,90,0.00,,,0.00,Wunderground v.1.15,2013-10-04 07:45:00,
2013-10-04 02:50:00,70.0,67.3,29.84,South,181,4.0,4.0,91,0.00,,,0.00,Wunderground v.1.15,2013-10-04 07:50:00,
2013-10-04 02:55:00,70.0,67.3,29.84,South,184,5.0,6.0,91,0.00,,,0.00,Wunderground v.1.15,2013-10-04 07:55:00,
2013-10-04 03:01:00,70.1,67.3,29.84,SSE,158,5.0,8.0,91,0.00,,,0.00,Wunderground v.1.15,2013-10-04 08:01:00,
2013-10-04 03:06:00,70.1,67.3,29.83,SSE,154,6.0,8.0,91,0.00,,,0.00,Wunderground v.1.15,2013-10-04 08:06:00,
2013-10-04 03:11:00,70.1,67.3,29.84,SSE,160,6.0,8.0,91,0.00,,,0.00,Wunderground v.1.15,2013-10-04 08:11:00,
2013-10-04 03:17:00,70.2,67.1,29.83,South,180,6.0,8.0,90,0.00,,,0.00,Wunderground v.1.15,2013-10-04 08:17:00,
2013-10-04 03:22:00,70.4,67.3,29.83,South,171,7.0,9.0,90,0.00,,,0.00,Wunderground v.1.15,2013-10-04 08:22:00,
2013-10-04 03:27:00,70.3,67.2,29.83,SSE,155,7.0,12.0,90,0.00,,,0.00,Wunderground v.1.15,2013-10-04 08:27:00,
2013-10-04 03:33:00,70.4,67.3,29.83,South,173,7.0,8.0,90,0.00,,,0.00,Wunderground v.1.15,2013-10-04 08:33:00,
2013-10-04 03:38:00,70.5,67.4,29.83,South,169,7.0,10.0,90,0.00,,,0.00,Wunderground v.1.15,2013-10-04 08:38:00,
2013-10-04 03:43:00,70.6,67.2,29.83,SSE,159,7.0,8.0,89,0.00,,,0.00,Wunderground v.1.15,2013-10-04 08:43:00,
2013-10-04 03:49:00,70.7,67.3,29.83,South,175,7.0,14.0,89,0.00,,,0.00,Wunderground v.1.15,2013-10-04 08:49:00,
2013-10-04 03:55:00,70.6,67.2,29.83,SE,131,7.0,10.0,89,0.00,,,0.00,Wunderground v.1.15,2013-10-04 08:55:00,
2013-10-04 04:00:00,70.4,67.3,29.83,SSE,162,6.0,6.0,90,0.00,,,0.00,Wunderground v.1.15,2013-10-04 09:00:00,
2013-10-04 04:05:00,70.3,67.2,29.83,SSE,167,6.0,10.0,90,0.00,,,0.00,Wunderground v.1.15,2013-10-04 09:05:00,
2013-10-04 04:11:00,70.2,67.1,29.83,South,176,7.0,9.0,90,0.00,,,0.00,Wunderground v.1.15,2013-10-04 09:11:00,
2013-10-04 04:16:00,70.2,67.1,29.83,South,182,7.0,13.0,90,0.00,,,0.00,Wunderground v.1.15,2013-10-04 09:16:00,
2013-10-04 04:21:00,70.3,67.2,29.83,SSE,162,7.0,12.0,90,0.00,,,0.00,Wunderground v.1.15,2013-10-04 09:21:00,
2013-10-04 04:27:00,70.2,67.1,29.83,SSE,165,7.0,12.0,90,0.00,,,0.00,Wunderground v.1.15,2013-10-04 09:27:00,
2013-10-04 04:32:00,70.3,67.2,29.83,South,191,7.0,7.0,90,0.00,,,0.00,Wunderground v.1.15,2013-10-04 09:32:00,
2013-10-04 04:37:00,70.3,67.2,29.83,SSE,166,7.0,9.0,90,0.00,,,0.00,Wunderground v.1.15,2013-10-04 09:37:00,
2013-10-04 04:43:00,70.2,67.1,29.83,SSE,149,7.0,9.0,90,0.00,,,0.00,Wunderground v.1.15,2013-10-04 09:43:00,
2013-10-04 04:48:00,70.1,67.0,29.83,SE,145,7.0,10.0,90,0.00,,,0.00,Wunderground v.1.15,2013-10-04 09:48:00,
2013-10-04 04:53:00,69.9,67.2,29.83,South,174,6.0,6.0,91,0.00,,,0.00,Wunderground v.1.15,2013-10-04 09:53:00,
2013-10-04 04:58:00,69.8,67.1,29.83,South,190,6.0,9.0,91,0.00,,,0.00,Wunderground v.1.15,2013-10-04 09:58:00,
2013-10-04 05:04:00,69.8,67.1,29.83,SSE,167,6.0,8.0,91,0.00,,,0.00,Wunderground v.1.15,2013-10-04 10:04:00,
2013-10-04 05:09:00,69.7,67.0,29.83,South,191,5.0,9.0,91,0.00,,,0.00,Wunderground v.1.15,2013-10-04 10:09:00,
2013-10-04 05:14:00,69.7,67.0,29.83,South,187,6.0,8.0,91,0.00,,,0.00,Wunderground v.1.15,2013-10-04 10:14:00,
2013-10-04 05:19:00,69.7,67.0,29.83,ESE,121,5.0,8.0,91,0.00,,,0.00,Wunderground v.1.15,2013-10-04 10:19:00,
2013-10-04 05:25:00,69.7,67.0,29.83,SSW,202,5.0,10.0,91,0.00,,,0.00,Wunderground v.1.15,2013-10-04 10:25:00,
2013-10-04 05:30:00,69.7,67.0,29.83,ESE,120,5.0,5.0,91,0.00,,,0.00,Wunderground v.1.15,2013-10-04 10:30:00,
2013-10-04 05:35:00,69.8,67.1,29.83,SW,231,5.0,8.0,91,0.00,,,0.00,Wunderground v.1.15,2013-10-04 10:35:00,
2013-10-04 05:40:00,70.0,67.3,29.83,SSE,157,6.0,6.0,91,0.00,,,0.00,Wunderground v.1.15,2013-10-04 10:40:00,
2013-10-04 05:46:00,70.1,67.0,29.83,South,187,6.0,10.0,90,0.00,,,0.00,Wunderground v.1.15,2013-10-04 10:46:00,
2013-10-04 05:51:00,69.9,66.8,29.84,SE,127,6.0,7.0,90,0.00,,,0.00,Wunderground v.1.15,2013-10-04 10:51:00,
2013-10-04 05:56:00,69.8,67.1,29.83,SSE,155,5.0,7.0,91,0.00,,,0.00,Wunderground v.1.15,2013-10-04 10:56:00,
2013-10-04 06:02:00,69.7,67.0,29.83,SSW,196,5.0,7.0,91,0.00,,,0.00,Wunderground v.1.15,2013-10-04 11:02:00,
2013-10-04 06:07:00,69.7,67.0,29.83,South,188,6.0,8.0,91,0.00,,,0.00,Wunderground v.1.15,2013-10-04 11:07:00,
2013-10-04 06:13:00,69.7,67.0,29.84,SSE,165,5.0,9.0,91,0.00,,,0.00,Wunderground v.1.15,2013-10-04 11:13:00,
2013-10-04 06:18:00,69.6,66.9,29.84,SSW,207,5.0,9.0,91,0.00,,,0.00,Wunderground v.1.15,2013-10-04 11:18:00,
2013-10-04 06:23:00,69.7,67.0,29.84,SSE,162,5.0,6.0,91,0.00,,,0.00,Wunderground v.1.15,2013-10-04 11:23:00,
2013-10-04 06:28:00,69.6,66.9,29.84,SW,221,5.0,8.0,91,0.00,,,0.00,Wunderground v.1.15,2013-10-04 11:28:00,
2013-10-04 06:34:00,69.6,66.9,29.84,South,186,5.0,6.0,91,0.00,,,0.00,Wunderground v.1.15,2013-10-04 11:34:00,
2013-10-04 06:39:00,69.6,66.9,29.84,South,176,5.0,9.0,91,0.00,,,0.00,Wunderground v.1.15,2013-10-04 11:39:00,
2013-10-04 06:44:00,69.5,66.8,29.84,SSW,212,5.0,7.0,91,0.00,,,0.00,Wunderground v.1.15,2013-10-04 11:44:00,
2013-10-04 06:49:00,69.5,66.8,29.84,SSW,211,5.0,7.0,91,0.00,,,0.00,Wunderground v.1.15,2013-10-04 11:49:00,
2013-10-04 06:55:00,69.5,66.8,29.84,SSW,200,6.0,8.0,91,0.00,,,0.00,Wunderground v.1.15,2013-10-04 11:55:00,
2013-10-04 07:00:00,69.6,66.9,29.84,SSW,193,6.0,7.0,91,0.00,,,0.00,Wunderground v.1.15,2013-10-04 12:00:00,
2013-10-04 07:05:00,69.6,66.9,29.84,SSW,208,6.0,7.0,91,0.00,,,0.00,Wunderground v.1.15,2013-10-04 12:05:00,
2013-10-04 07:11:00,69.5,66.8,29.84,SW,222,5.0,7.0,91,0.00,,,0.00,Wunderground v.1.15,2013-10-04 12:11:00,
2013-10-04 07:17:00,69.5,66.8,29.84,SSW,192,6.0,8.0,91,0.00,,,0.00,Wunderground v.1.15,2013-10-04 12:17:00,
2013-10-04 07:22:00,69.4,66.7,29.84,SSW,205,6.0,7.0,91,0.00,,,0.00,Wunderground v.1.15,2013-10-04 12:22:00,
2013-10-04 07:28:00,69.5,66.8,29.84,South,177,6.0,10.0,91,0.00,,,0.00,Wunderground v.1.15,2013-10-04 12:28:00,
2013-10-04 07:33:00,69.5,66.8,29.84,SSE,159,6.0,10.0,91,0.00,,,0.00,Wunderground v.1.15,2013-10-04 12:33:00,
2013-10-04 07:39:00,69.5,66.8,29.84,SSW,199,6.0,10.0,91,0.00,,,0.00,Wunderground v.1.15,2013-10-04 12:39:00,
2013-10-04 07:45:00,69.6,66.9,29.84,SSE,166,7.0,10.0,91,0.00,,,0.00,Wunderground v.1.15,2013-10-04 12:45:00,
2013-10-04 07:50:00,69.8,67.1,29.84,SSE,156,7.0,7.0,91,0.00,,,0.00,Wunderground v.1.15,2013-10-04 12:50:00,
2013-10-04 07:55:00,69.9,66.8,29.84,South,181,6.0,8.0,90,0.00,,,0.00,Wunderground v.1.15,2013-10-04 12:55:00,
2013-10-04 08:01:00,70.0,66.9,29.84,South,188,7.0,10.0,90,0.00,,,0.00,Wunderground v.1.15,2013-10-04 13:01:00,
2013-10-04 08:06:00,70.2,67.1,29.84,South,184,7.0,10.0,90,0.00,,,0.00,Wunderground v.1.15,2013-10-04 13:06:00,
2013-10-04 08:12:00,70.4,67.0,29.84,South,188,6.0,9.0,89,0.00,,,0.00,Wunderground v.1.15,2013-10-04 13:12:00,
2013-10-04 08:17:00,70.6,67.2,29.84,South,173,6.0,10.0,89,0.00,,,0.00,Wunderground v.1.15,2013-10-04 13:17:00,
2013-10-04 08:22:00,70.8,67.4,29.84,South,187,6.0,11.0,89,0.00,,,0.00,Wunderground v.1.15,2013-10-04 13:22:00,
2013-10-04 08:27:00,71.1,67.4,29.85,SW,215,5.0,11.0,88,0.00,,,0.00,Wunderground v.1.15,2013-10-04 13:27:00,
2013-10-04 08:33:00,71.3,67.6,29.85,SW,222,5.0,6.0,88,0.00,,,0.00,Wunderground v.1.15,2013-10-04 13:33:00,
2013-10-04 08:38:00,71.5,67.4,29.85,SW,233,5.0,9.0,87,0.00,,,0.00,Wunderground v.1.15,2013-10-04 13:38:00,
2013-10-04 08:43:00,71.8,67.7,29.85,SW,223,5.0,6.0,87,0.00,,,0.00,Wunderground v.1.15,2013-10-04 13:43:00,
2013-10-04 08:49:00,72.0,67.6,29.85,South,176,5.0,7.0,86,0.00,,,0.00,Wunderground v.1.15,2013-10-04 13:49:00,
2013-10-04 08:54:00,72.2,67.8,29.85,WSW,242,6.0,9.0,86,0.00,,,0.00,Wunderground v.1.15,2013-10-04 13:54:00,
2013-10-04 08:59:00,72.4,68.0,29.85,SSW,200,6.0,9.0,86,0.00,,,0.00,Wunderground v.1.15,2013-10-04 13:59:00,
2013-10-04 09:05:00,72.4,67.6,29.85,SSE,168,7.0,11.0,85,0.00,,,0.00,Wunderground v.1.15,2013-10-04 14:05:00,
2013-10-04 09:10:00,72.4,68.0,29.85,South,178,7.0,7.0,86,0.00,,,0.00,Wunderground v.1.15,2013-10-04 14:10:00,
2013-10-04 09:15:00,72.6,67.8,29.86,SSW,195,6.0,8.0,85,0.00,,,0.00,Wunderground v.1.15,2013-10-04 14:15:00,
2013-10-04 09:20:00,72.9,68.1,29.86,SSE,156,7.0,8.0,85,0.00,,,0.00,Wunderground v.1.15,2013-10-04 14:20:00,
2013-10-04 09:26:00,73.2,68.1,29.86,SSW,196,7.0,9.0,84,0.00,,,0.00,Wunderground v.1.15,2013-10-04 14:26:00,
2013-10-04 09:31:00,73.4,67.9,29.86,South,176,7.0,7.0,83,0.00,,,0.00,Wunderground v.1.15,2013-10-04 14:31:00,
2013-10-04 09:36:00,73.4,68.3,29.86,SSW,202,7.0,12.0,84,0.00,,,0.00,Wunderground v.1.15,2013-10-04 14:36:00,
2013-10-04 09:42:00,73.8,68.3,29.86,SSW,204,8.0,9.0,83,0.00,,,0.00,Wunderground v.1.15,2013-10-04 14:42:00,
2013-10-04 09:47:00,74.1,68.3,29.87,SSW,203,9.0,11.0,82,0.00,,,0.00,Wunderground v.1.15,2013-10-04 14:47:00,
2013-10-04 09:52:00,74.0,68.2,29.87,SSW,198,9.0,10.0,82,0.00,,,0.00,Wunderground v.1.15,2013-10-04 14:52:00,
2013-10-04 09:57:00,74.0,68.2,29.87,SW,232,9.0,10.0,82,0.00,,,0.00,Wunderground v.1.15,2013-10-04 14:57:00,
2013-10-04 10:03:00,74.2,68.0,29.87,WSW,240,8.0,11.0,81,0.00,,,0.00,Wunderground v.1.15,2013-10-04 15:03:00,
2013-10-04 10:08:00,74.2,68.0,29.87,SSE,158,9.0,11.0,81,0.00,,,0.00,Wunderground v.1.15,2013-10-04 15:08:00,
2013-10-04 10:13:00,74.5,68.3,29.87,SSE,167,8.0,15.0,81,0.00,,,0.00,Wunderground v.1.15,2013-10-04 15:13:00,
2013-10-04 10:19:00,74.8,68.2,29.86,WSW,239,9.0,15.0,80,0.00,,,0.00,Wunderground v.1.15,2013-10-04 15:19:00,
2013-10-04 10:24:00,74.9,67.9,29.87,South,184,10.0,18.0,79,0.00,,,0.00,Wunderground v.1.15,2013-10-04 15:24:00,
2013-10-04 10:25:00,75.0,68.0,29.87,SSW,192,11.0,18.0,79,0.00,,,0.00,Wunderground v.1.15,2013-10-04 15:25:00,
2013-10-04 10:30:00,75.3,68.0,29.86,South,174,11.0,11.0,78,0.00,,,0.00,Wunderground v.1.15,2013-10-04 15:30:00,
2013-10-04 10:35:00,75.3,68.0,29.86,South,183,10.0,15.0,78,0.00,,,0.00,Wunderground v.1.15,2013-10-04 15:35:00,
2013-10-04 10:41:00,75.8,68.4,29.87,South,175,9.0,10.0,78,0.00,,,0.00,Wunderground v.1.15,2013-10-04 15:41:00,
2013-10-04 10:46:00,75.7,67.6,29.86,South,191,9.0,18.0,76,0.00,,,0.00,Wunderground v.1.15,2013-10-04 15:46:00,
2013-10-04 10:51:00,75.9,68.2,29.86,SSE,167,10.0,10.0,77,0.00,,,0.00,Wunderground v.1.15,2013-10-04 15:51:00,
2013-10-04 10:57:00,76.3,68.2,29.86,South,185,9.0,10.0,76,0.00,,,0.00,Wunderground v.1.15,2013-10-04 15:57:00,
2013-10-04 11:02:00,76.4,67.9,29.86,SSW,195,9.0,13.0,75,0.00,,,0.00,Wunderground v.1.15,2013-10-04 16:02:00,
2013-10-04 11:07:00,76.5,67.6,29.86,SE,135,11.0,14.0,74,0.00,,,0.00,Wunderground v.1.15,2013-10-04 16:07:00,
2013-10-04 11:12:00,76.6,67.7,29.86,SSW,192,11.0,11.0,74,0.00,,,0.00,Wunderground v.1.15,2013-10-04 16:12:00,
2013-10-04 11:18:00,77.0,67.7,29.86,SW,235,10.0,15.0,73,0.00,,,0.00,Wunderground v.1.15,2013-10-04 16:18:00,
2013-10-04 11:23:00,77.1,67.8,29.86,South,190,10.0,11.0,73,0.00,,,0.00,Wunderground v.1.15,2013-10-04 16:23:00,
2013-10-04 11:28:00,77.2,67.9,29.85,ESE,123,9.0,16.0,73,0.00,,,0.00,Wunderground v.1.15,2013-10-04 16:28:00,
2013-10-04 11:34:00,76.9,67.2,29.86,SSW,202,12.0,18.0,72,0.00,,,0.00,Wunderground v.1.15,2013-10-04 16:34:00,
2013-10-04 11:40:00,77.3,67.6,29.86,SSE,155,12.0,12.0,72,0.00,,,0.00,Wunderground v.1.15,2013-10-04 16:40:00,
2013-10-04 11:45:00,77.2,67.5,29.86,South,184,9.0,13.0,72,0.00,,,0.00,Wunderground v.1.15,2013-10-04 16:45:00,
2013-10-04 11:51:00,77.4,67.7,29.86,South,189,9.0,11.0,72,0.00,,,0.00,Wunderground v.1.15,2013-10-04 16:51:00,
2013-10-04 11:56:00,77.9,67.7,29.85,South,178,9.0,12.0,71,0.00,,,0.00,Wunderground v.1.15,2013-10-04 16:56:00,
2013-10-04 12:01:00,78.4,68.2,29.86,SW,214,8.0,8.0,71,0.00,,,0.00,Wunderground v.1.15,2013-10-04 17:01:00,
2013-10-04 12:06:00,79.1,68.1,29.85,SSW,205,6.0,12.0,69,0.00,,,0.00,Wunderground v.1.15,2013-10-04 17:06:00,
2013-10-04 12:12:00,78.3,66.9,29.85,South,180,7.0,14.0,68,0.00,,,0.00,Wunderground v.1.15,2013-10-04 17:12:00,
2013-10-04 12:18:00,78.8,67.3,29.85,South,190,9.0,14.0,68,0.00,,,0.00,Wunderground v.1.15,2013-10-04 17:18:00,
2013-10-04 12:23:00,78.8,66.9,29.85,SSE,167,9.0,11.0,67,0.00,,,0.00,Wunderground v.1.15,2013-10-04 17:23:00,
2013-10-04 12:29:00,79.4,67.0,29.85,SSW,207,8.0,13.0,66,0.00,,,0.00,Wunderground v.1.15,2013-10-04 17:29:00,
2013-10-04 12:35:00,79.5,67.1,29.85,West,265,8.0,12.0,66,0.00,,,0.00,Wunderground v.1.15,2013-10-04 17:35:00,
2013-10-04 13:01:00,80.8,67.0,29.84,West,281,6.0,8.0,63,0.00,,,0.00,Wunderground v.1.15,2013-10-04 18:01:00,
2013-10-04 13:06:00,80.8,67.5,29.84,South,169,7.0,11.0,64,0.00,,,0.00,Wunderground v.1.15,2013-10-04 18:06:00,
2013-10-04 13:12:00,80.4,67.1,29.84,WSW,254,7.0,7.0,64,0.00,,,0.00,Wunderground v.1.15,2013-10-04 18:12:00,
2013-10-04 13:18:00,80.0,67.2,29.83,South,176,7.0,11.0,65,0.00,,,0.00,Wunderground v.1.15,2013-10-04 18:18:00,
2013-10-04 13:23:00,80.5,67.2,29.83,SSW,194,6.0,9.0,64,0.00,,,0.00,Wunderground v.1.15,2013-10-04 18:23:00,
2013-10-04 13:29:00,80.5,68.1,29.83,South,186,6.0,9.0,66,0.00,,,0.00,Wunderground v.1.15,2013-10-04 18:29:00,
2013-10-04 13:35:00,81.1,68.2,29.83,South,191,5.0,8.0,65,0.00,,,0.00,Wunderground v.1.15,2013-10-04 18:35:00,
2013-10-04 13:40:00,81.2,67.4,29.83,South,175,6.0,6.0,63,0.00,,,0.00,Wunderground v.1.15,2013-10-04 18:40:00,
2013-10-04 13:45:00,81.2,66.9,29.82,SSW,195,8.0,18.0,62,0.00,,,0.00,Wunderground v.1.15,2013-10-04 18:45:00,
2013-10-04 13:51:00,80.7,67.4,29.82,SSW,207,10.0,10.0,64,0.00,,,0.00,Wunderground v.1.15,2013-10-04 18:51:00,
2013-10-04 13:56:00,81.5,67.7,29.82,SSW,206,8.0,10.0,63,0.00,,,0.00,Wunderground v.1.15,2013-10-04 18:56:00,
2013-10-04 14:01:00,80.9,67.1,29.81,SW,223,7.0,7.0,63,0.00,,,0.00,Wunderground v.1.15,2013-10-04 19:01:00,
2013-10-04 14:07:00,81.1,67.3,29.81,SW,221,7.0,11.0,63,0.00,,,0.00,Wunderground v.1.15,2013-10-04 19:07:00,
2013-10-04 14:12:00,81.2,67.4,29.81,South,180,7.0,8.0,63,0.00,,,0.00,Wunderground v.1.15,2013-10-04 19:12:00,
2013-10-04 14:17:00,82.1,67.8,29.81,WSW,240,6.0,9.0,62,0.00,,,0.00,Wunderground v.1.15,2013-10-04 19:17:00,
2013-10-04 14:23:00,81.5,67.7,29.81,SSW,199,5.0,5.0,63,0.00,,,0.00,Wunderground v.1.15,2013-10-04 19:23:00,
2013-10-04 14:28:00,81.2,67.9,29.81,SSE,153,4.0,6.0,64,0.00,,,0.00,Wunderground v.1.15,2013-10-04 19:28:00,
2013-10-04 14:33:00,81.0,67.7,29.81,SE,146,4.0,5.0,64,0.00,,,0.00,Wunderground v.1.15,2013-10-04 19:33:00,
2013-10-04 14:38:00,80.7,67.4,29.81,SSW,211,5.0,7.0,64,0.00,,,0.00,Wunderground v.1.15,2013-10-04 19:38:00,
2013-10-04 14:44:00,81.6,68.2,29.81,SSE,157,5.0,9.0,64,0.00,,,0.00,Wunderground v.1.15,2013-10-04 19:44:00,
2013-10-04 14:49:00,82.4,68.5,29.81,South,190,4.0,9.0,63,0.00,,,0.00,Wunderground v.1.15,2013-10-04 19:49:00,
2013-10-04 14:54:00,82.3,68.0,29.81,SSW,192,5.0,7.0,62,0.00,,,0.00,Wunderground v.1.15,2013-10-04 19:54:00,
2013-10-04 14:59:00,82.3,68.4,29.81,SSW,201,4.0,7.0,63,0.00,,,0.00,Wunderground v.1.15,2013-10-04 19:59:00,
2013-10-04 15:05:00,81.9,67.1,29.81,SSE,165,5.0,11.0,61,0.00,,,0.00,Wunderground v.1.15,2013-10-04 20:05:00,
2013-10-04 15:10:00,81.3,67.0,29.81,SSE,158,6.0,6.0,62,0.00,,,0.00,Wunderground v.1.15,2013-10-04 20:10:00,
2013-10-04 15:15:00,81.1,67.8,29.80,ESE,111,6.0,12.0,64,0.00,,,0.00,Wunderground v.1.15,2013-10-04 20:15:00,
2013-10-04 15:20:00,81.0,67.7,29.80,South,182,7.0,7.0,64,0.00,,,0.00,Wunderground v.1.15,2013-10-04 20:20:00,
2013-10-04 15:26:00,80.6,67.3,29.81,South,175,7.0,10.0,64,0.00,,,0.00,Wunderground v.1.15,2013-10-04 20:26:00,
2013-10-04 15:31:00,80.5,67.6,29.81,South,174,8.0,8.0,65,0.00,,,0.00,Wunderground v.1.15,2013-10-04 20:31:00,
2013-10-04 15:37:00,80.9,68.0,29.81,South,171,6.0,8.0,65,0.00,,,0.00,Wunderground v.1.15,2013-10-04 20:37:00,
2013-10-04 15:42:00,80.8,67.5,29.81,South,182,6.0,6.0,64,0.00,,,0.00,Wunderground v.1.15,2013-10-04 20:42:00,
2013-10-04 15:47:00,80.2,66.9,29.81,SSE,147,7.0,12.0,64,0.00,,,0.00,Wunderground v.1.15,2013-10-04 20:47:00,
2013-10-04 15:52:00,80.4,67.6,29.81,SSW,197,7.0,8.0,65,0.00,,,0.00,Wunderground v.1.15,2013-10-04 20:52:00,
2013-10-04 15:57:00,80.8,67.9,29.80,SSW,192,6.0,11.0,65,0.00,,,0.00,Wunderground v.1.15,2013-10-04 20:57:00,
2013-10-04 16:03:00,81.0,67.7,29.80,SSE,152,6.0,10.0,64,0.00,,,0.00,Wunderground v.1.15,2013-10-04 21:03:00,
2013-10-04 16:08:00,81.2,67.9,29.80,South,182,6.0,10.0,64,0.00,,,0.00,Wunderground v.1.15,2013-10-04 21:08:00,
2013-10-04 16:13:00,80.5,67.2,29.80,South,180,7.0,14.0,64,0.00,,,0.00,Wunderground v.1.15,2013-10-04 21:13:00,
2013-10-04 16:19:00,80.2,67.4,29.80,SE,144,8.0,14.0,65,0.00,,,0.00,Wunderground v.1.15,2013-10-04 21:19:00,
2013-10-04 16:25:00,80.2,67.4,29.81,SE,136,7.0,10.0,65,0.00,,,0.00,Wunderground v.1.15,2013-10-04 21:25:00,
2013-10-04 16:30:00,80.0,67.6,29.81,SSW,201,7.0,7.0,66,0.00,,,0.00,Wunderground v.1.15,2013-10-04 21:30:00,
2013-10-04 16:35:00,79.7,66.9,29.81,SSE,166,5.0,7.0,65,0.00,,,0.00,Wunderground v.1.15,2013-10-04 21:35:00,
2013-10-04 16:41:00,79.6,66.8,29.81,SE,146,6.0,9.0,65,0.00,,,0.00,Wunderground v.1.15,2013-10-04 21:41:00,
2013-10-04 16:46:00,79.7,66.9,29.81,SSW,197,7.0,12.0,65,0.00,,,0.00,Wunderground v.1.15,2013-10-04 21:46:00,
2013-10-04 16:52:00,79.6,66.8,29.81,East,89,6.0,10.0,65,0.00,,,0.00,Wunderground v.1.15,2013-10-04 21:52:00,
2013-10-04 16:57:00,79.8,66.5,29.81,South,191,6.0,10.0,64,0.00,,,0.00,Wunderground v.1.15,2013-10-04 21:57:00,
2013-10-04 17:02:00,80.0,66.3,29.81,South,171,6.0,9.0,63,0.00,,,0.00,Wunderground v.1.15,2013-10-04 22:02:00,
2013-10-04 17:08:00,80.0,66.7,29.81,SSE,154,7.0,14.0,64,0.00,,,0.00,Wunderground v.1.15,2013-10-04 22:08:00,
2013-10-04 17:13:00,79.9,66.6,29.81,SSE,151,7.0,10.0,64,0.00,,,0.00,Wunderground v.1.15,2013-10-04 22:13:00,
2013-10-04 17:18:00,79.7,66.4,29.81,SSE,152,6.0,10.0,64,0.00,,,0.00,Wunderground v.1.15,2013-10-04 22:18:00,
2013-10-04 17:23:00,79.5,66.3,29.81,South,182,6.0,9.0,64,0.00,,,0.00,Wunderground v.1.15,2013-10-04 22:23:00,
2013-10-04 17:29:00,79.6,66.3,29.80,ESE,121,6.0,9.0,64,0.00,,,0.00,Wunderground v.1.15,2013-10-04 22:29:00,
2013-10-04 17:34:00,79.3,66.5,29.81,SE,135,5.0,7.0,65,0.00,,,0.00,Wunderground v.1.15,2013-10-04 22:34:00,
2013-10-04 17:40:00,79.2,66.0,29.81,South,180,4.0,7.0,64,0.00,,,0.00,Wunderground v.1.15,2013-10-04 22:40:00,
2013-10-04 17:45:00,79.2,66.0,29.81,SE,126,5.0,7.0,64,0.00,,,0.00,Wunderground v.1.15,2013-10-04 22:45:00,
2013-10-04 17:51:00,79.1,65.4,29.81,SSE,159,6.0,9.0,63,0.00,,,0.00,Wunderground v.1.15,2013-10-04 22:51:00,
2013-10-04 17:56:00,78.9,65.2,29.80,SSE,159,6.0,9.0,63,0.00,,,0.00,Wunderground v.1.15,2013-10-04 22:56:00,
2013-10-04 18:01:00,78.8,65.6,29.80,SE,146,5.0,6.0,64,0.00,,,0.00,Wunderground v.1.15,2013-10-04 23:01:00,
2013-10-04 18:06:00,78.7,65.5,29.80,SSE,154,5.0,9.0,64,0.00,,,0.00,Wunderground v.1.15,2013-10-04 23:06:00,
2013-10-04 18:11:00,78.5,65.3,29.80,SSE,163,6.0,7.0,64,0.00,,,0.00,Wunderground v.1.15,2013-10-04 23:11:00,
2013-10-04 18:16:00,78.5,64.9,29.80,South,183,5.0,9.0,63,0.00,,,0.00,Wunderground v.1.15,2013-10-04 23:16:00,
2013-10-04 18:22:00,78.4,64.8,29.80,SSE,155,5.0,7.0,63,0.00,,,0.00,Wunderground v.1.15,2013-10-04 23:22:00,
2013-10-04 18:27:00,78.4,64.8,29.80,SSE,159,6.0,9.0,63,0.00,,,0.00,Wunderground v.1.15,2013-10-04 23:27:00,
2013-10-04 18:32:00,78.3,64.7,29.80,SE,135,5.0,6.0,63,0.00,,,0.00,Wunderground v.1.15,2013-10-04 23:32:00,
2013-10-04 18:37:00,78.2,64.6,29.80,South,169,6.0,9.0,63,0.00,,,0.00,Wunderground v.1.15,2013-10-04 23:37:00,
2013-10-04 18:43:00,78.2,64.6,29.79,SE,143,7.0,9.0,63,0.00,,,0.00,Wunderground v.1.15,2013-10-04 23:43:00,
2013-10-04 18:48:00,78.2,64.6,29.79,SE,124,8.0,12.0,63,0.00,,,0.00,Wunderground v.1.15,2013-10-04 23:48:00,
2013-10-04 18:53:00,78.0,64.4,29.79,SE,136,7.0,9.0,63,0.00,,,0.00,Wunderground v.1.15,2013-10-04 23:53:00,
2013-10-04 18:59:00,78.0,64.4,29.79,SE,138,7.0,9.0,63,0.00,,,0.00,Wunderground v.1.15,2013-10-04 23:59:00,
2013-10-04 19:05:00,77.9,64.3,29.79,SE,134,7.0,9.0,63,0.00,,,0.00,Wunderground v.1.15,2013-10-05 00:05:00,
2013-10-04 19:10:00,77.9,64.3,29.79,SE,134,8.0,8.0,63,0.00,,,0.00,Wunderground v.1.15,2013-10-05 00:10:00,
2013-10-04 19:15:00,77.6,64.0,29.79,SSE,154,7.0,9.0,63,0.00,,,0.00,Wunderground v.1.15,2013-10-05 00:15:00,
2013-10-04 19:21:00,77.5,63.9,29.79,SE,132,7.0,7.0,63,0.00,,,0.00,Wunderground v.1.15,2013-10-05 00:21:00,
2013-10-04 19:26:00,77.5,63.9,29.79,South,178,7.0,11.0,63,0.00,,,0.00,Wunderground v.1.15,2013-10-05 00:26:00,
2013-10-04 19:32:00,77.4,63.8,29.79,SE,137,8.0,8.0,63,0.00,,,0.00,Wunderground v.1.15,2013-10-05 00:32:00,
2013-10-04 19:37:00,77.3,63.7,29.79,SSE,165,7.0,10.0,63,0.00,,,0.00,Wunderground v.1.15,2013-10-05 00:37:00,
2013-10-04 19:42:00,77.0,63.9,29.79,SE,138,7.0,7.0,64,0.00,,,0.00,Wunderground v.1.15,2013-10-05 00:42:00,
2013-10-04 19:48:00,76.7,64.0,29.79,SE,130,6.0,8.0,65,0.00,,,0.00,Wunderground v.1.15,2013-10-05 00:48:00,
2013-10-04 19:53:00,76.6,64.0,29.79,SSE,149,6.0,8.0,65,0.00,,,0.00,Wunderground v.1.15,2013-10-05 00:53:00,
2013-10-04 19:59:00,76.5,63.9,29.79,SSE,168,6.0,13.0,65,0.00,,,0.00,Wunderground v.1.15,2013-10-05 00:59:00,
2013-10-04 20:04:00,76.5,63.9,29.80,SSE,148,7.0,11.0,65,0.00,,,0.00,Wunderground v.1.15,2013-10-05 01:04:00,
2013-10-04 20:09:00,76.5,63.9,29.80,SSE,165,8.0,12.0,65,0.00,,,0.00,Wunderground v.1.15,2013-10-05 01:09:00,
2013-10-04 20:15:00,76.3,64.1,29.81,South,174,7.0,9.0,66,0.00,,,0.00,Wunderground v.1.15,2013-10-05 01:15:00,
2013-10-04 20:20:00,76.2,64.0,29.81,South,190,6.0,6.0,66,0.00,,,0.00,Wunderground v.1.15,2013-10-05 01:20:00,
2013-10-04 20:25:00,76.1,63.9,29.81,SSE,147,6.0,6.0,66,0.00,,,0.00,Wunderground v.1.15,2013-10-05 01:25:00,
2013-10-04 20:30:00,76.1,63.9,29.82,South,169,6.0,6.0,66,0.00,,,0.00,Wunderground v.1.15,2013-10-05 01:30:00,
2013-10-04 20:36:00,75.8,64.1,29.83,South,170,5.0,6.0,67,0.00,,,0.00,Wunderground v.1.15,2013-10-05 01:36:00,
2013-10-04 20:41:00,75.8,64.1,29.83,SE,139,4.0,9.0,67,0.00,,,0.00,Wunderground v.1.15,2013-10-05 01:41:00,
2013-10-04 20:46:00,75.7,64.0,29.83,SSE,163,5.0,9.0,67,0.00,,,0.00,Wunderground v.1.15,2013-10-05 01:46:00,
2013-10-04 20:52:00,75.6,64.3,29.83,SE,142,4.0,7.0,68,0.00,,,0.00,Wunderground v.1.15,2013-10-05 01:52:00,
2013-10-04 20:57:00,75.5,64.2,29.83,SSE,159,4.0,7.0,68,0.00,,,0.00,Wunderground v.1.15,2013-10-05 01:57:00,
2013-10-04 21:03:00,75.3,64.0,29.84,SSE,159,4.0,6.0,68,0.00,,,0.00,Wunderground v.1.15,2013-10-05 02:03:00,
2013-10-04 21:08:00,75.2,64.3,29.84,SSE,157,4.0,6.0,69,0.00,,,0.00,Wunderground v.1.15,2013-10-05 02:08:00,
2013-10-04 21:13:00,75.1,64.2,29.84,SSE,158,4.0,5.0,69,0.00,,,0.00,Wunderground v.1.15,2013-10-05 02:13:00,
2013-10-04 21:18:00,75.1,64.2,29.84,SSE,154,5.0,7.0,69,0.00,,,0.00,Wunderground v.1.15,2013-10-05 02:18:00,
2013-10-04 21:24:00,75.1,64.2,29.85,SSE,156,5.0,8.0,69,0.00,,,0.00,Wunderground v.1.15,2013-10-05 02:24:00,
2013-10-04 21:29:00,75.2,64.7,29.85,South,188,6.0,12.0,70,0.00,,,0.00,Wunderground v.1.15,2013-10-05 02:29:00,
2013-10-04 21:35:00,75.3,64.8,29.85,SSE,153,7.0,11.0,70,0.00,,,0.00,Wunderground v.1.15,2013-10-05 02:35:00,
2013-10-04 21:40:00,75.1,64.6,29.85,SSE,166,6.0,7.0,70,0.00,,,0.00,Wunderground v.1.15,2013-10-05 02:40:00,
2013-10-04 21:46:00,75.0,65.0,29.85,SSE,155,6.0,8.0,71,0.00,,,0.00,Wunderground v.1.15,2013-10-05 02:46:00,
2013-10-04 21:51:00,74.9,65.3,29.85,SSE,161,6.0,8.0,72,0.00,,,0.00,Wunderground v.1.15,2013-10-05 02:51:00,
2013-10-04 21:56:00,74.8,65.6,29.85,SSW,196,6.0,9.0,73,0.00,,,0.00,Wunderground v.1.15,2013-10-05 02:56:00,
2013-10-04 22:02:00,74.7,65.9,29.85,SSW,193,6.0,9.0,74,0.00,,,0.00,Wunderground v.1.15,2013-10-05 03:02:00,
2013-10-04 22:07:00,74.6,66.1,29.85,SSE,164,6.0,9.0,75,0.00,,,0.00,Wunderground v.1.15,2013-10-05 03:07:00,
2013-10-04 22:12:00,74.5,66.4,29.85,South,178,6.0,9.0,76,0.00,,,0.00,Wunderground v.1.15,2013-10-05 03:12:00,
2013-10-04 22:18:00,74.4,66.3,29.86,SSE,159,6.0,10.0,76,0.00,,,0.00,Wunderground v.1.15,2013-10-05 03:18:00,
2013-10-04 22:23:00,74.3,66.2,29.86,SSE,157,6.0,8.0,76,0.00,,,0.00,Wunderground v.1.15,2013-10-05 03:23:00,
2013-10-04 22:28:00,74.2,66.5,29.85,South,182,6.0,8.0,77,0.00,,,0.00,Wunderground v.1.15,2013-10-05 03:28:00,
2013-10-04 22:33:00,74.1,66.8,29.85,SSW,198,6.0,12.0,78,0.00,,,0.00,Wunderground v.1.15,2013-10-05 03:33:00,
2013-10-04 22:38:00,74.0,66.7,29.86,SSE,155,7.0,13.0,78,0.00,,,0.00,Wunderground v.1.15,2013-10-05 03:38:00,
2013-10-04 22:44:00,73.8,66.5,29.86,SSE,153,7.0,9.0,78,0.00,,,0.00,Wunderground v.1.15,2013-10-05 03:44:00,
2013-10-04 22:49:00,73.7,66.8,29.86,SSE,157,6.0,9.0,79,0.00,,,0.00,Wunderground v.1.15,2013-10-05 03:49:00,
2013-10-04 22:54:00,73.7,67.1,29.86,SE,144,7.0,10.0,80,0.00,,,0.00,Wunderground v.1.15,2013-10-05 03:54:00,
2013-10-04 23:00:00,73.6,67.4,29.86,SE,130,7.0,9.0,81,0.00,,,0.00,Wunderground v.1.15,2013-10-05 04:00:00,
2013-10-04 23:01:00,73.7,67.5,29.86,South,184,7.0,9.0,81,0.00,,,0.00,Wunderground v.1.15,2013-10-05 04:01:00,
2013-10-04 23:02:00,73.6,67.4,29.85,SSE,159,7.0,9.0,81,0.00,,,0.00,Wunderground v.1.15,2013-10-05 04:02:00,
2013-10-04 23:06:00,73.5,67.3,29.85,South,186,7.0,9.0,81,0.00,,,0.00,Wunderground v.1.15,2013-10-05 04:06:00,
2013-10-04 23:07:00,73.5,67.3,29.85,South,175,7.0,9.0,81,0.00,,,0.00,Wunderground v.1.15,2013-10-05 04:07:00,
2013-10-04 23:09:00,73.5,67.3,29.85,South,173,7.0,9.0,81,0.00,,,0.00,Wunderground v.1.15,2013-10-05 04:09:00,
2013-10-04 23:14:00,73.5,67.7,29.85,South,188,8.0,12.0,82,0.00,,,0.00,Wunderground v.1.15,2013-10-05 04:14:00,
2013-10-04 23:20:00,73.4,67.6,29.85,South,178,7.0,7.0,82,0.00,,,0.00,Wunderground v.1.15,2013-10-05 04:20:00,
2013-10-04 23:25:00,73.3,67.8,29.85,SSE,157,7.0,9.0,83,0.00,,,0.00,Wunderground v.1.15,2013-10-05 04:25:00,
2013-10-04 23:31:00,73.1,67.6,29.85,SSE,161,7.0,10.0,83,0.00,,,0.00,Wunderground v.1.15,2013-10-05 04:31:00,
2013-10-04 23:36:00,73.1,68.0,29.84,SSE,157,8.0,13.0,84,0.00,,,0.00,Wunderground v.1.15,2013-10-05 04:36:00,
2013-10-04 23:41:00,73.0,67.9,29.84,SSE,150,8.0,9.0,84,0.00,,,0.00,Wunderground v.1.15,2013-10-05 04:41:00,
2013-10-04 23:46:00,73.0,67.9,29.84,SSW,205,8.0,11.0,84,0.00,,,0.00,Wunderground v.1.15,2013-10-05 04:46:00,
2013-10-04 23:51:00,72.9,67.8,29.84,South,188,8.0,8.0,84,0.00,,,0.00,Wunderground v.1.15,2013-10-05 04:51:00,
2013-10-04 23:57:00,72.8,67.7,29.85,SSW,193,7.0,8.0,84,0.00,,,0.00,Wunderground v.1.15,2013-10-05 04:57:00,